Location: Newark
(52.5667°N, 8.8000°W)
Time: 07:24:08
(UTC+00:00)

N. Korean satellite - Pass Details

Date: 29 January 2020
Orbit: 456 x 505 km, 97.2° (Epoch: 20 February)

Event Time Altitude Azimuth Distance (km) Brightness Sun altitude
Rises 05:32:42 0° 26° (NNE) 2,550 10.6 -25.7°
Reaches altitude 10° 05:35:14 10° 45° (NE) 1,675 9.9 -25.3°
Maximum altitude 05:37:51 19° 92° (E) 1,230 9.4 -24.9°
Drops below altitude 10° 05:40:28 10° 138° (SE) 1,684 9.8 -24.5°
Sets 05:43:01 0° 157° (SSE) 2,570 10.5 -24.1°
